BAW69R EGFF-EGPE

Flight info

Callsign BAW69R
Flight time N/A
Altitude 32000
Route BCN P69 DIZIM N864 KISWO DCT AVTIC DCT ANJAK N38 NOKIN/N0434F320 UP16 RIBEL DCT ERSON/N0394F250 N560 NESDI DCT GUSSI
Aircraft A21N/M-SDE3FGHIRWY/LB1

Departure

Time 2026-05-05 17:18
Airport Cardiff International Airport (EGFF)

Arrival

Time N/A
Airport Inverness Airport (EGPE)
Time Latitude Longitude Altitude Speed Heading
2026-05-05 16:56 51.39764 -3.33847 229 ft 0 kts 81°
2026-05-05 17:10 51.39764 -3.33855 229 ft 2 kts 81°
2026-05-05 17:10 51.39761 -3.33879 229 ft 2 kts 81°
2026-05-05 17:10 51.39759 -3.33902 229 ft 2 kts 81°
2026-05-05 17:11 51.39756 -3.33926 229 ft 1 kts 68°
2026-05-05 17:11 51.39747 -3.33943 229 ft 2 kts 25°
2026-05-05 17:11 51.39733 -3.33947 229 ft 2 kts 347°
2026-05-05 17:11 51.39720 -3.33936 229 ft 2 kts 309°
2026-05-05 17:12 51.39714 -3.33915 229 ft 2 kts 292°
2026-05-05 17:12 51.39707 -3.33894 229 ft 2 kts 299°
2026-05-05 17:12 51.39704 -3.33884 229 ft 0 kts 297°
2026-05-05 17:14 51.39704 -3.33885 229 ft 0 kts 297°
2026-05-05 17:14 51.39714 -3.33916 229 ft 5 kts 297°
2026-05-05 17:14 51.39739 -3.33995 229 ft 10 kts 297°
2026-05-05 17:15 51.39775 -3.34111 229 ft 12 kts 297°
2026-05-05 17:15 51.39818 -3.34244 229 ft 13 kts 296°
2026-05-05 17:15 51.39861 -3.34382 229 ft 14 kts 296°
2026-05-05 17:15 51.39907 -3.34527 229 ft 14 kts 298°
2026-05-05 17:16 51.39954 -3.34674 229 ft 14 kts 296°
2026-05-05 17:16 51.39998 -3.34825 229 ft 14 kts 298°
2026-05-05 17:16 51.40048 -3.34973 229 ft 15 kts 298°
2026-05-05 17:16 51.40096 -3.35123 229 ft 15 kts 297°
2026-05-05 17:17 51.40142 -3.35275 229 ft 15 kts 295°
2026-05-05 17:17 51.40143 -3.35433 229 ft 14 kts 242°
2026-05-05 17:17 51.40063 -3.35525 229 ft 12 kts 197°
2026-05-05 17:17 51.40020 -3.35473 229 ft 7 kts 116°
2026-05-05 17:18 51.39945 -3.35230 229 ft 60 kts 117°
2026-05-05 17:18 51.39632 -3.34237 229 ft 137 kts 118°
2026-05-05 17:18 51.39128 -3.32634 517 ft 172 kts 115°
2026-05-05 17:18 51.38608 -3.30923 1304 ft 176 kts 112°
2026-05-05 17:19 51.38092 -3.29174 2148 ft 178 kts 111°
2026-05-05 17:19 51.37543 -3.27332 2698 ft 195 kts 111°
2026-05-05 17:19 51.36926 -3.25263 3243 ft 215 kts 111°
2026-05-05 17:19 51.36261 -3.23028 3816 ft 235 kts 112°
2026-05-05 17:20 51.35565 -3.20575 4489 ft 250 kts 104°
2026-05-05 17:20 51.35575 -3.17814 5108 ft 260 kts 68°
2026-05-05 17:20 51.36653 -3.15559 5935 ft 264 kts 33°
2026-05-05 17:20 51.38291 -3.14215 6879 ft 268 kts 25°
2026-05-05 17:21 51.39958 -3.12869 7803 ft 272 kts 26°
2026-05-05 17:21 51.41623 -3.11500 8745 ft 275 kts 22°
2026-05-05 17:21 51.43503 -3.10913 9536 ft 281 kts 357°
2026-05-05 17:22 51.47128 -3.13326 10804 ft 306 kts 329°
2026-05-05 17:22 51.49087 -3.14995 11242 ft 325 kts 335°
2026-05-05 17:22 51.51193 -3.16330 11908 ft 335 kts 340°
2026-05-05 17:22 51.53417 -3.17485 12767 ft 339 kts 342°
2026-05-05 17:23 51.55690 -3.18568 13593 ft 343 kts 343°
2026-05-05 17:23 51.57985 -3.19626 14372 ft 348 kts 343°
2026-05-05 17:23 51.60317 -3.20695 15156 ft 352 kts 343°
2026-05-05 17:23 51.62677 -3.21777 15919 ft 356 kts 343°
2026-05-05 17:24 51.65052 -3.22868 16662 ft 360 kts 343°
2026-05-05 17:24 51.67452 -3.23972 17402 ft 363 kts 343°
2026-05-05 17:24 51.69900 -3.25082 18112 ft 368 kts 345°
2026-05-05 17:24 51.72414 -3.25740 18778 ft 374 kts 354°
2026-05-05 17:25 51.75016 -3.25720 19437 ft 379 kts
2026-05-05 17:25 51.75896 -3.25564 19652 ft 381 kts
2026-05-05 17:25 51.80298 -3.24492 20704 ft 389 kts
2026-05-05 17:25 51.82960 -3.23803 21326 ft 393 kts
2026-05-05 17:26 51.85686 -3.23110 21936 ft 397 kts
2026-05-05 17:26 51.88402 -3.22433 22522 ft 400 kts
2026-05-05 17:26 51.91160 -3.21751 23091 ft 404 kts
2026-05-05 17:26 51.93934 -3.21065 23635 ft 408 kts
2026-05-05 17:27 51.96745 -3.20370 24165 ft 412 kts
2026-05-05 17:27 51.99575 -3.19669 24685 ft 416 kts
2026-05-05 17:27 52.02432 -3.18977 25209 ft 419 kts
2026-05-05 17:27 52.05336 -3.18491 25739 ft 420 kts
2026-05-05 17:28 52.08268 -3.18213 26259 ft 422 kts
2026-05-05 17:28 52.11164 -3.17995 26738 ft 424 kts
2026-05-05 17:28 52.14135 -3.17782 27190 ft 427 kts
2026-05-05 17:28 52.17090 -3.17564 27633 ft 429 kts